Tracking 20083 objects as of 12-Dec-2019
HD Live streaming from Space Station
objects crossing your sky now

SL-24 DEB

Track SL-24 DEB now!
10-day predictions


NORAD ID: 36601
Int'l Code: 2010-028D
Perigee: 724.9 km
Apogee: 750.8 km
Inclination: 98.4 °
Period: 99.4 minutes
Semi major axis: 7108 km
RCS: 5.771 m2 (large)
Launch date: June 15, 2010
Source: Commonwealth of Independent States (former USSR) (CIS)
Launch site: Orenburg, Russia (OREN)

Note: This is SATELLITE DEBRIS
aabbcc
Your satellite tracking list
Your tracking list is empty




NASA's NSSDC Master Catalog

Two Line Element Set (TLE):
1 36601U 10028D   19345.78005538 +.00000067 +00000-0 +29753-4 0  9998
2 36601 098.3873 169.5321 0018259 084.3638 275.9637 14.48445368501125
Source of the keplerian elements: AFSPC